S51BR Weather Reports


Display with metric or nautical units.
time (UTC)temp
F
wind
direction
speed
MPH
gust
MPH
rain 1hr
in
rain 24hr
in
rain mn
in
humidity
%
barometer
mb
20260507165014 63 4 4.0 7.0 0.00 0.00 0.00 60 1013.0
20260507164516 63 220 2.0 5.0 0.00 0.00 0.00 61 1012.9
20260507164009 62 330 0.0 2.0 0.00 0.00 0.00 65 1012.9
20260507163507 62 117 0.0 1.0 0.00 0.00 0.00 64 1012.9
20260507163023 62 182 1.0 2.0 0.00 0.00 0.00 64 1012.9
20260507162506 62 155 1.0 2.0 0.00 0.00 0.00 64 1012.8
20260507162011 62 155 0.0 2.0 0.00 0.00 0.00 65 1012.8
20260507161523 62 161 0.0 5.0 0.00 0.00 0.00 65 1012.8
20260507161009 63 212 1.0 6.0 0.00 0.00 0.00 65 1012.8
20260507160509 63 186 1.0 6.0 0.00 0.00 0.00 64 1012.8
20260507160025 64 333 2.0 4.0 0.00 0.00 0.00 63 1012.8
20260507155512 65 191 2.0 4.0 0.00 0.00 0.00 61 1012.8
20260507155011 66 312 1.0 5.0 0.00 0.00 0.00 61 1012.7
20260507154510 67 212 2.0 5.0 0.00 0.00 0.00 61 1012.7
20260507154008 67 309 1.0 4.0 0.00 0.00 0.00 60 1012.5
20260507153508 66 314 1.0 4.0 0.00 0.00 0.00 62 1012.5
20260507153017 64 308 1.0 3.0 0.00 0.00 0.00 64 1012.5
20260507152507 64 177 1.0 2.0 0.00 0.00 0.00 66 1012.6
20260507152008 64 230 0.0 3.0 0.00 0.00 0.00 67 1012.5
20260507151522 64 150 1.0 3.0 0.00 0.00 0.00 65 1012.5
20260507151006 64 37 1.0 3.0 0.00 0.00 0.00 64 1012.6
20260507150513 65 325 1.0 3.0 0.00 0.00 0.00 64 1012.6
20260507150024 65 313 1.0 3.0 0.00 0.00 0.00 64 1012.5
20260507145510 66 172 1.0 3.0 0.00 0.00 0.00 60 1012.5
20260507145010 67 157 1.0 5.0 0.00 0.00 0.00 61 1012.5
20260507144531 67 10 1.0 5.0 0.00 0.00 0.00 58 1012.5
20260507144012 68 328 2.0 4.0 0.00 0.00 0.00 60 1012.5
20260507143510 67 359 0.0 5.0 0.00 0.00 0.00 65 1012.5
20260507143016 67 25 2.0 5.0 0.00 0.00 0.00 59 1012.6
20260507142508 67 244 2.0 5.0 0.00 0.00 0.00 61 1012.6
20260507142009 67 22 2.0 5.0 0.00 0.00 0.00 61 1012.5
20260507141517 67 307 1.0 5.0 0.00 0.00 0.00 63 1012.6
20260507141007 66 311 2.0 5.0 0.00 0.00 0.00 63 1012.5
20260507140508 66 105 2.0 5.0 0.00 0.00 0.00 66 1012.5
20260507140026 65 188 1.0 4.0 0.00 0.00 0.00 66 1012.7
20260507135506 65 314 1.0 4.0 0.00 0.00 0.00 68 1012.7
20260507135009 64 20 1.0 4.0 0.00 0.00 0.00 68 1012.6
20260507134528 65 201 2.0 5.0 0.00 0.00 0.00 66 1012.8
20260507134009 65 320 2.0 5.0 0.00 0.00 0.00 64 1012.8
20260507133515 66 297 2.0 5.0 0.00 0.00 0.00 65 1012.8
20260507133026 67 203 2.0 5.0 0.00 0.00 0.00 63 1012.9
20260507132510 67 5 2.0 5.0 0.00 0.00 0.00 64 1012.9
20260507132007 67 200 2.0 7.0 0.00 0.00 0.00 65 1013.0
20260507131518 67 179 3.0 8.0 0.00 0.00 0.00 64 1013.1
20260507131009 66 203 2.0 8.0 0.00 0.00 0.00 64 1013.1
20260507130509 66 333 2.0 4.0 0.00 0.00 0.00 69 1013.1
20260507130021 65 304 1.0 4.0 0.00 0.00 0.00 70 1013.2
20260507125509 64 194 2.0 4.0 0.00 0.00 0.00 70 1013.3
20260507125006 63 167 2.0 4.0 0.00 0.00 0.00 70 1013.4
20260507124526 64 154 2.0 6.0 0.00 0.00 0.00 71 1013.4
20260507124014 63 235 2.0 6.0 0.00 0.00 0.00 71 1013.4
20260507123506 63 184 2.0 5.0 0.00 0.00 0.00 71 1013.4
20260507123009 62 156 1.0 6.0 0.00 0.00 0.00 71 1013.4
20260507122507 62 304 3.0 6.0 0.00 0.00 0.00 69 1013.4
20260507122007 62 219 2.0 4.0 0.00 0.00 0.00 69 1013.3
20260507121513 62 209 2.0 4.0 0.00 0.00 0.00 71 1013.4
20260507121008 61 181 3.0 4.0 0.00 0.00 0.00 70 1013.4
20260507120507 62 323 1.0 5.0 0.00 0.00 0.00 70 1013.5
20260507120018 61 165 1.0 5.0 0.00 0.00 0.00 74 1013.5
20260507115513 61 25 3.0 5.0 0.00 0.00 0.00 73 1013.6
20260507115009 61 200 1.0 4.0 0.00 0.00 0.00 74 1013.6
20260507114523 60 170 1.0 4.0 0.00 0.00 0.00 74 1013.5
20260507114006 61 196 2.0 4.0 0.00 0.00 0.00 72 1013.7
20260507113510 61 163 1.0 3.0 0.00 0.00 0.00 73 1013.7
20260507113024 61 229 1.0 5.0 0.00 0.00 0.00 77 1013.7
20260507112507 61 207 1.0 5.0 0.00 0.00 0.00 76 1013.7
20260507112003 61 317 2.0 5.0 0.00 0.00 0.00 74 1013.7
20260507111510 61 165 1.0 5.0 0.00 0.00 0.00 75 1013.6
20260507111006 61 240 1.0 5.0 0.00 0.00 0.00 76 1013.7
20260507110507 61 186 2.0 5.0 0.00 0.00 0.00 77 1013.8
20260507110016 62 110 2.0 5.0 0.00 0.00 0.00 75 1013.8
20260507105507 62 124 2.0 5.0 0.00 0.00 0.00 72 1013.8
20260507105006 64 199 3.0 5.0 0.00 0.00 0.00 69 1013.7
20260507104526 65 199 2.0 5.0 0.00 0.00 0.00 67 1013.6
20260507104010 66 171 2.0 5.0 0.00 0.00 0.00 67 1013.6
20260507103506 67 141 2.0 4.0 0.00 0.00 0.00 66 1013.6
20260507103026 66 167 2.0 3.0 0.00 0.00 0.00 66 1013.6
20260507102509 65 165 1.0 5.0 0.00 0.00 0.00 64 1013.7
20260507102012 66 302 2.0 5.0 0.00 0.00 0.00 67 1013.7
20260507101537 66 219 1.0 4.0 0.00 0.00 0.00 69 1013.7
20260507101011 65 205 2.0 5.0 0.00 0.00 0.00 70 1013.7
20260507100503 64 238 2.0 5.0 0.00 0.00 0.00 71 1013.8
20260507100026 63 326 1.0 4.0 0.00 0.00 0.00 73 1013.8
20260507095507 62 223 1.0 4.0 0.00 0.00 0.00 75 1013.8
20260507095012 62 155 1.0 2.0 0.00 0.00 0.00 73 1013.8
20260507094516 61 326 1.0 2.0 0.00 0.00 0.00 74 1013.8
20260507094007 61 158 1.0 2.0 0.00 0.00 0.00 74 1013.9
20260507093508 61 160 1.0 2.0 0.00 0.00 0.00 75 1013.9
20260507093027 60 141 1.0 2.0 0.00 0.00 0.00 74 1013.7
20260507092514 61 137 0.0 3.0 0.00 0.00 0.00 73 1013.9
20260507092008 61 167 1.0 3.0 0.00 0.00 0.00 73 1013.8
20260507091546 61 323 1.0 2.0 0.00 0.00 0.00 71 1013.8
20260507091010 61 316 0.0 2.0 0.00 0.00 0.00 73 1013.8
20260507090511 61 4 1.0 2.0 0.00 0.00 0.00 73 1013.9
20260507090026 61 316 1.0 2.0 0.00 0.00 0.00 73 1013.9
20260507085506 61 195 1.0 2.0 0.00 0.00 0.00 71 1013.8
20260507085006 61 154 0.0 4.0 0.00 0.00 0.00 72 1013.7
20260507084515 61 150 1.0 4.0 0.00 0.00 0.00 72 1013.8
20260507084012 62 326 1.0 3.0 0.00 0.00 0.00 68 1013.8
20260507083507 63 167 1.0 4.0 0.00 0.00 0.00 69 1013.7
20260507083020 63 1 2.0 4.0 0.00 0.00 0.00 69 1013.7
20260507082506 62 312 1.0 4.0 0.00 0.00 0.00 72 1013.7
20260507082009 62 258 1.0 4.0 0.00 0.00 0.00 73 1013.7
20260507081527 61 318 2.0 4.0 0.00 0.00 0.00 74 1013.7
20260507081009 60 174 1.0 4.0 0.00 0.00 0.00 74 1013.7
20260507080512 59 309 1.0 3.0 0.00 0.00 0.00 77 1013.7
20260507080025 59 188 1.0 2.0 0.00 0.00 0.00 77 1013.7
20260507075506 59 316 0.0 2.0 0.00 0.00 0.00 76 1013.8
20260507075014 59 333 1.0 2.0 0.00 0.00 0.00 76 1013.7
20260507074531 59 175 0.0 3.0 0.00 0.00 0.00 76 1013.8
20260507074006 58 175 1.0 3.0 0.00 0.00 0.00 76 1013.6
20260507073507 57 127 0.0 1.0 0.00 0.00 0.00 78 1013.6
20260507073018 57 122 0.0 1.0 0.00 0.00 0.00 82 1013.5
20260507072506 55 82 0.0 1.0 0.00 0.00 0.00 82 1013.6
20260507072010 55 82 0.0 1.0 0.00 0.00 0.00 82 1013.5
20260507071522 55 139 0.0 1.0 0.00 0.00 0.00 81 1013.5
20260507071006 55 139 0.0 1.0 0.00 0.00 0.00 80 1013.5
20260507070512 55 107 0.0 1.0 0.00 0.00 0.00 79 1013.3
20260507070023 55 120 0.0 2.0 0.00 0.00 0.00 80 1013.1
20260507065511 54 120 0.0 2.0 0.00 0.00 0.00 80 1013.3
20260507065009 54 120 0.0 1.0 0.00 0.00 0.00 81 1013.2
20260507064527 54 120 0.0 1.0 0.00 0.00 0.00 81 1013.3
20260507064008 54 120 0.0 1.0 0.00 0.00 0.00 81 1013.2
20260507063511 54 120 0.0 1.0 0.00 0.00 0.00 82 1013.3
20260507063030 54 120 0.0 1.0 0.00 0.00 0.00 82 1013.3
20260507062510 54 120 0.0 1.0 0.00 0.00 0.00 83 1013.2
20260507062006 54 120 0.0 1.0 0.00 0.00 0.00 84 1013.1
20260507061528 54 120 0.0 1.0 0.00 0.00 0.00 82 1013.1
20260507061008 54 120 0.0 1.0 0.00 0.00 0.00 84 1013.0
20260507060506 54 120 0.0 1.0 0.00 0.00 0.00 81 1013.0
20260507060029 54 120 0.0 1.0 0.00 0.00 0.00 81 1012.9
20260507055508 54 120 0.0 1.0 0.00 0.00 0.00 82 1012.9
20260507055019 54 120 0.0 1.0 0.00 0.00 0.00 82 1012.8
20260507054526 54 120 0.0 1.0 0.00 0.00 0.00 81 1012.8
20260507054007 54 120 0.0 1.0 0.00 0.00 0.00 81 1012.8
20260507053511 54 120 0.0 1.0 0.00 0.00 0.00 80 1012.7
20260507053028 54 108 0.0 1.0 0.00 0.00 0.00 82 1012.7
20260507052507 53 108 0.0 1.0 0.00 0.00 0.00 82 1012.6
20260507052011 53 108 0.0 1.0 0.00 0.00 0.00 84 1012.5
20260507051516 53 108 0.0 1.0 0.00 0.00 0.00 84 1012.5
20260507051009 53 108 0.0 1.0 0.00 0.00 0.00 84 1012.5
20260507050511 53 108 0.0 1.0 0.00 0.00 0.00 84 1012.5
20260507050030 53 108 0.0 1.0 0.00 0.00 0.00 84 1012.5
20260507045506 52 108 0.0 1.0 0.00 0.00 0.00 84 1012.4
20260507045008 52 108 0.0 1.0 0.00 0.00 0.00 85 1012.4
20260507044539 52 108 0.0 1.0 0.00 0.00 0.00 86 1012.2
20260507044014 52 108 0.0 1.0 0.00 0.00 0.00 85 1012.3
20260507043509 52 108 0.0 1.0 0.00 0.00 0.00 85 1012.2
20260507043029 52 108 0.0 1.0 0.00 0.00 0.00 84 1012.1
20260507042512 52 108 0.0 1.0 0.00 0.00 0.00 85 1012.0
20260507042010 52 107 0.0 1.0 0.00 0.00 0.00 85 1012.0
20260507041526 52 108 0.0 1.0 0.00 0.00 0.00 84 1012.0
20260507041008 52 108 0.0 1.0 0.00 0.00 0.00 83 1011.9
20260507040507 53 108 0.0 1.0 0.00 0.00 0.00 83 1012.0
20260507040019 53 107 0.0 1.0 0.00 0.00 0.00 83 1011.9
20260507035507 53 108 0.0 1.0 0.00 0.00 0.00 83 1011.9
20260507035007 52 108 0.0 1.0 0.00 0.00 0.00 84 1011.9
20260507034503 52 108 0.0 2.0 0.00 0.00 0.00 84 1011.8
20260507034004 52 108 0.0 2.0 0.00 0.00 0.00 84 1011.8
20260507033503 51 117 0.0 1.0 0.00 0.00 0.00 85 1011.8
20260507033009 51 117 0.0 1.0 0.00 0.00 0.00 84 1011.7
20260507032504 51 117 1.0 1.0 0.00 0.00 0.00 83 1011.9
20260507032006 52 90 0.0 1.0 0.00 0.00 0.00 82 1012.0
20260507031511 52 90 0.0 1.0 0.00 0.00 0.00 82 1012.0
20260507031011 52 90 0.0 1.0 0.00 0.00 0.00 82 1011.9
20260507030508 52 90 0.0 1.0 0.00 0.00 0.00 82 1011.9
20260507030018 52 90 0.0 1.0 0.00 0.00 0.00 82 1011.9
20260507025507 52 89 0.0 1.0 0.00 0.00 0.00 81 1011.7
20260507025007 52 89 0.0 1.0 0.00 0.00 0.00 81 1011.6
20260507024519 52 89 0.0 1.0 0.00 0.00 0.00 81 1011.6
20260507024008 52 89 0.0 2.0 0.00 0.00 0.00 81 1011.6
20260507023511 52 91 0.0 2.0 0.00 0.00 0.00 82 1011.6
20260507023003 51 135 0.0 1.0 0.00 0.00 0.00 83 1011.6
20260507022503 51 135 0.0 1.0 0.00 0.00 0.00 83 1011.7
20260507022006 51 135 0.0 1.0 0.00 0.00 0.00 81 1011.8
20260507021508 52 135 0.0 1.0 0.00 0.00 0.00 81 1011.9
20260507021010 52 135 0.0 1.0 0.00 0.00 0.00 80 1011.7
20260507020506 52 60 0.0 1.0 0.00 0.00 0.00 80 1011.7
20260507020011 52 60 0.0 1.0 0.00 0.00 0.00 80 1011.8
20260507015506 52 60 0.0 2.0 0.00 0.00 0.00 80 1011.7
20260507015010 53 60 0.0 2.0 0.00 0.00 0.00 79 1011.7
20260507014515 52 60 0.0 2.0 0.00 0.00 0.00 79 1011.7
20260507014009 52 80 0.0 2.0 0.00 0.00 0.00 79 1011.7
20260507013507 52 39 0.0 2.0 0.00 0.00 0.00 80 1011.7
20260507013022 52 65 0.0 1.0 0.00 0.00 0.00 80 1011.7
20260507012514 52 65 0.0 1.0 0.00 0.00 0.00 80 1011.7
20260507012010 52 65 0.0 1.0 0.00 0.00 0.00 79 1011.8
20260507011506 53 37 0.0 1.0 0.00 0.00 0.00 78 1011.8
20260507011004 53 37 0.0 3.0 0.00 0.00 0.00 78 1011.8
20260507010503 53 37 1.0 3.0 0.00 0.00 0.00 78 1011.9
20260507010008 53 19 0.0 3.0 0.00 0.00 0.00 77 1011.7
20260507005508 53 71 1.0 4.0 0.00 0.00 0.00 77 1011.8
20260507005009 53 20 1.0 4.0 0.00 0.00 0.00 77 1011.8
20260507004515 53 37 0.0 5.0 0.00 0.00 0.00 78 1011.7
20260507004007 53 207 1.0 5.0 0.00 0.00 0.00 77 1011.8
20260507003508 53 49 1.0 3.0 0.00 0.00 0.00 78 1011.8
20260507003019 53 18 1.0 3.0 0.00 0.00 0.00 78 1011.8
20260507002510 53 353 1.0 4.0 0.00 0.00 0.00 78 1011.8
20260507002009 53 22 1.0 4.0 0.00 0.00 0.00 78 1011.9
20260507001525 53 21 2.0 4.0 0.00 0.00 0.00 78 1012.0
20260507001012 52 31 1.0 4.0 0.00 0.00 0.00 80 1012.1
20260507000510 52 63 0.0 2.0 0.00 0.00 0.00 81 1012.2
20260507000006 53 63 0.0 2.0 0.00 0.00 0.00 81 1012.1
20260506235507 53 72 0.0 1.0 0.00 0.00 0.00 81 1012.0
20260506235008 53 48 0.0 1.0 0.00 0.00 0.00 81 1012.1
20260506234514 53 48 0.0 3.0 0.00 0.00 0.00 81 1012.1
20260506234006 53 48 0.0 3.0 0.00 0.00 0.00 81 1012.1
20260506233507 53 31 1.0 1.0 0.00 0.00 0.00 81 1012.3
20260506233016 53 30 1.0 1.0 0.00 0.00 0.00 82 1012.2
20260506232509 53 13 0.0 2.0 0.00 0.00 0.00 82 1012.2
20260506232007 53 12 1.0 3.0 0.00 0.00 0.00 82 1012.3
20260506231519 53 30 1.0 5.0 0.00 0.00 0.00 81 1012.3
20260506231008 53 22 1.0 6.0 0.00 0.00 0.00 81 1012.5
20260506230510 53 344 2.0 7.0 0.00 0.00 0.00 80 1012.6
20260506230024 54 349 2.0 9.0 0.00 0.00 0.00 80 1012.5
20260506225508 54 4 3.0 10.0 0.00 0.00 0.00 79 1012.7
20260506225011 54 310 4.0 10.0 0.00 0.00 0.00 78 1012.5
20260506224507 54 6 2.0 8.0 0.00 0.00 0.00 78 1012.6
20260506224006 54 336 2.0 4.0 0.00 0.00 0.00 78 1012.5
20260506223505 55 320 1.0 4.0 0.00 0.00 0.00 77 1012.5
20260506223014 55 316 1.0 4.0 0.00 0.00 0.00 76 1012.4
20260506222507 55 26 1.0 4.0 0.00 0.00 0.00 76 1012.3
20260506222012 55 12 1.0 4.0 0.00 0.00 0.00 75 1012.2
20260506221520 55 345 1.0 3.0 0.00 0.00 0.00 75 1012.3
20260506221011 55 8 1.0 3.0 0.00 0.00 0.00 75 1012.1
20260506220508 55 29 1.0 4.0 0.00 0.00 0.00 75 1011.9
20260506220030 55 49 1.0 4.0 0.00 0.00 0.00 76 1011.9
20260506215509 55 25 1.0 5.0 0.00 0.00 0.00 77 1011.8
20260506215009 55 40 1.0 5.0 0.00 0.00 0.00 78 1011.8
20260506214527 55 23 1.0 2.0 0.00 0.00 0.00 79 1011.8
20260506214009 55 103 0.0 1.0 0.00 0.00 0.00 80 1011.6
20260506213506 55 48 0.0 1.0 0.00 0.00 0.00 80 1011.7
20260506213015 55 48 0.0 1.0 0.00 0.00 0.00 80 1011.8
20260506212506 55 48 0.0 1.0 0.00 0.00 0.00 80 1011.7
20260506212006 55 48 0.0 1.0 0.00 0.00 0.00 80 1011.7
20260506211514 55 48 0.0 2.0 0.00 0.00 0.00 80 1011.7
20260506211007 55 48 0.0 3.0 0.00 0.00 0.00 79 1011.8
20260506210511 56 15 0.0 4.0 0.00 0.00 0.00 79 1011.7
20260506210020 56 12 1.0 10.0 0.00 0.00 0.00 78 1011.7
20260506205510 56 5 1.0 10.0 0.00 0.00 0.00 80 1011.9
20260506205008 56 276 3.0 10.0 0.00 0.00 0.00 80 1011.9
20260506204525 56 319 1.0 5.0 0.00 0.00 0.00 80 1011.8
20260506204010 56 22 2.0 5.0 0.00 0.00 0.00 80 1011.7
20260506203514 56 124 0.0 1.0 0.00 0.00 0.00 80 1011.7
20260506203026 56 15 0.0 3.0 0.00 0.00 0.00 80 1011.7
20260506202514 56 17 1.0 3.0 0.00 0.00 0.00 80 1011.5
20260506202006 56 30 0.0 1.0 0.00 0.00 0.00 80 1011.4
20260506201514 55 30 0.0 1.0 0.00 0.00 0.00 81 1011.4
20260506201008 55 30 0.0 1.0 0.00 0.00 0.00 81 1011.4
20260506200506 55 29 0.0 2.0 0.00 0.00 0.00 80 1011.4
20260506200024 56 316 0.0 2.0 0.00 0.00 0.00 80 1011.3
20260506195507 55 11 0.0 1.0 0.00 0.00 0.00 80 1011.2
20260506195013 56 352 0.0 2.0 0.00 0.00 0.00 80 1011.2
20260506194520 56 43 0.0 2.0 0.00 0.00 0.00 80 1011.2
20260506194012 56 27 1.0 3.0 0.00 0.00 0.00 80 1011.2
20260506193511 56 30 0.0 3.0 0.00 0.00 0.00 80 1011.1
20260506193026 56 4 0.0 3.0 0.00 0.00 0.00 79 1011.1
20260506192510 56 197 0.0 3.0 0.00 0.00 0.00 79 1011.1
20260506192009 56 174 1.0 3.0 0.00 0.00 0.00 79 1011.1
20260506191524 56 254 1.0 3.0 0.00 0.00 0.00 79 1011.0
20260506191010 56 251 1.0 3.0 0.00 0.00 0.00 79 1011.1
20260506190507 56 309 1.0 2.0 0.00 0.00 0.00 79 1011.0
20260506190014 56 11 1.0 4.0 0.00 0.00 0.00 78 1011.0
20260506185504 56 20 0.0 4.0 0.00 0.00 0.00 78 1011.0
20260506185007 57 176 0.0 4.0 0.00 0.00 0.00 78 1010.9
20260506184518 57 260 0.0 4.0 0.00 0.00 0.00 77 1010.9
20260506184006 57 20 1.0 5.0 0.00 0.00 0.00 77 1010.8
20260506183507 57 302 2.0 5.0 0.00 0.00 0.00 76 1010.8
20260506183024 57 309 1.0 4.0 0.00 0.00 0.00 76 1010.7
20260506182508 58 313 2.0 5.0 0.00 0.00 0.00 76 1010.8
20260506182006 58 318 2.0 5.0 0.00 0.00 0.00 75 1010.8
20260506181507 58 59 2.0 5.0 0.00 0.00 0.00 75 1010.6
20260506181005 58 327 3.0 5.0 0.00 0.00 0.00 74 1010.6
20260506180504 59 326 2.0 5.0 0.00 0.00 0.00 73 1010.6
20260506180010 59 168 1.0 4.0 0.00 0.00 0.00 73 1010.5
20260506175505 59 323 2.0 4.0 0.00 0.00 0.00 72 1010.4
20260506175006 60 309 1.0 4.0 0.00 0.00 0.00 72 1010.5
20260506174516 60 232 1.0 6.0 0.00 0.00 0.00 71 1010.6
20260506174007 61 25 2.0 6.0 0.00 0.00 0.00 71 1010.5
20260506173507 61 314 1.0 4.0 0.00 0.00 0.00 70 1010.3
20260506173019 62 26 2.0 5.0 0.00 0.00 0.00 68 1010.3
20260506172506 62 24 2.0 6.0 0.00 0.00 0.00 67 1010.3
20260506172008 62 304 1.0 6.0 0.00 0.00 0.00 67 1010.4
20260506171522 62 248 2.0 4.0 0.00 0.00 0.00 66 1010.3
20260506171004 62 270 1.0 4.0 0.00 0.00 0.00 69 1010.3
20260506170507 62 360 1.0 3.0 0.00 0.00 0.00 69 1010.3
20260506170007 62 27 1.0 4.0 0.00 0.00 0.00 70 1010.2
20260506165505 61 26 0.0 4.0 0.00 0.00 0.00 71 1010.3